Time,TemperatureF,DewpointF,PressureIn,WindDirection,WindDirectionDegrees,WindSpeedMPH,WindSpeedGustMPH,Humidity,HourlyPrecipIn,Conditions,Clouds,dailyrainin,SoftwareType,DateUTC
2013-01-17 00:05:00,49.0,47.0,29.94,SSE,158,1.0,7.0,94,0.05,,,0.63,,2013-01-17 05:05:00,
2013-01-17 00:12:00,49.0,47.0,29.94,SSE,158,1.0,7.0,94,0.05,,,0.63,,2013-01-17 05:12:00,
2013-01-17 00:22:00,49.0,48.0,29.95,SSE,153,3.0,8.0,95,0.04,,,0.63,,2013-01-17 05:22:00,
2013-01-17 00:33:00,49.0,48.0,29.93,SSE,155,4.0,9.0,95,0.04,,,0.64,,2013-01-17 05:33:00,
2013-01-17 00:42:00,49.0,48.0,29.93,SSE,155,4.0,9.0,95,0.04,,,0.64,,2013-01-17 05:42:00,
2013-01-17 00:52:00,49.0,48.0,29.93,SSE,156,3.0,7.0,95,0.04,,,0.66,,2013-01-17 05:52:00,
2013-01-17 01:03:00,49.0,48.0,29.93,SSE,156,3.0,7.0,95,0.04,,,0.66,,2013-01-17 06:03:00,
2013-01-17 01:12:00,49.0,48.0,29.93,SSE,156,3.0,7.0,95,0.04,,,0.66,,2013-01-17 06:12:00,
2013-01-17 01:22:00,50.0,48.0,29.93,SSE,156,0.0,5.0,94,0.03,,,0.59,,2013-01-17 06:22:00,
2013-01-17 01:33:00,50.0,48.0,29.93,SSE,157,2.0,6.0,93,0.02,,,0.59,,2013-01-17 06:33:00,
2013-01-17 01:42:00,50.0,48.0,29.93,SSE,157,2.0,6.0,93,0.02,,,0.59,,2013-01-17 06:42:00,
2013-01-17 01:53:00,50.0,48.0,29.93,SSE,157,1.0,4.0,92,0.00,,,0.59,,2013-01-17 06:53:00,
2013-01-17 02:02:00,50.0,48.0,29.93,SSE,156,1.0,3.0,92,0.00,,,0.52,,2013-01-17 07:02:00,
2013-01-17 02:12:00,50.0,48.0,29.93,SSE,156,1.0,3.0,92,0.00,,,0.52,,2013-01-17 07:12:00,
2013-01-17 02:22:00,51.0,48.0,29.94,SSE,156,2.0,6.0,91,0.00,,,0.52,,2013-01-17 07:22:00,
2013-01-17 02:33:00,51.0,48.0,29.94,SSE,156,2.0,6.0,91,0.00,,,0.52,,2013-01-17 07:33:00,
2013-01-17 02:42:00,51.0,48.0,29.94,SSE,156,2.0,6.0,91,0.00,,,0.52,,2013-01-17 07:42:00,
2013-01-17 02:53:00,50.0,48.0,29.94,SSE,154,2.0,8.0,92,0.00,,,0.52,,2013-01-17 07:53:00,
2013-01-17 03:02:00,50.0,48.0,29.93,SSE,156,2.0,9.0,94,0.01,,,0.51,,2013-01-17 08:02:00,
2013-01-17 03:12:00,50.0,48.0,29.93,SSE,156,2.0,9.0,94,0.01,,,0.51,,2013-01-17 08:12:00,
2013-01-17 03:22:00,50.0,49.0,29.93,SSE,158,2.0,9.0,95,0.01,,,0.51,,2013-01-17 08:22:00,
2013-01-17 03:32:00,50.0,49.0,29.92,SSE,158,0.0,5.0,95,0.02,,,0.52,,2013-01-17 08:32:00,
2013-01-17 03:43:00,50.0,49.0,29.92,SSE,158,0.0,5.0,95,0.02,,,0.52,,2013-01-17 08:43:00,
2013-01-17 03:53:00,50.0,49.0,29.93,SSE,158,1.0,5.0,95,0.02,,,0.52,,2013-01-17 08:53:00,
2013-01-17 04:03:00,50.0,49.0,29.92,SSE,158,0.0,3.0,95,0.03,,,0.50,,2013-01-17 09:03:00,
2013-01-17 04:12:00,50.0,49.0,29.92,SSE,158,0.0,3.0,95,0.03,,,0.50,,2013-01-17 09:12:00,
2013-01-17 04:22:00,49.0,48.0,29.92,SSE,158,0.0,2.0,95,0.03,,,0.50,,2013-01-17 09:22:00,
2013-01-17 04:32:00,49.0,48.0,29.92,SSE,158,0.0,1.0,96,0.02,,,0.50,,2013-01-17 09:32:00,
2013-01-17 04:42:00,49.0,48.0,29.92,SSE,158,0.0,1.0,96,0.02,,,0.50,,2013-01-17 09:42:00,
2013-01-17 04:53:00,49.0,48.0,29.91,SSE,158,0.0,1.0,95,0.03,,,0.51,,2013-01-17 09:53:00,
2013-01-17 05:02:00,48.0,47.0,29.91,SSE,158,0.0,1.0,96,0.01,,,0.48,,2013-01-17 10:02:00,
2013-01-17 05:12:00,48.0,47.0,29.91,SSE,158,0.0,1.0,96,0.01,,,0.48,,2013-01-17 10:12:00,
2013-01-17 05:22:00,48.0,47.0,29.91,SSE,158,0.0,1.0,96,0.02,,,0.49,,2013-01-17 10:22:00,
2013-01-17 05:32:00,48.0,47.0,29.92,SSE,158,0.0,1.0,96,0.04,,,0.51,,2013-01-17 10:32:00,
2013-01-17 05:42:00,48.0,47.0,29.92,SSE,158,0.0,1.0,96,0.04,,,0.51,,2013-01-17 10:42:00,
2013-01-17 05:53:00,48.0,47.0,29.92,SSE,158,0.0,1.0,96,0.04,,,0.52,,2013-01-17 10:53:00,
2013-01-17 06:03:00,48.0,47.0,29.91,SSE,158,0.0,1.0,96,0.03,,,0.48,,2013-01-17 11:03:00,
2013-01-17 06:12:00,48.0,47.0,29.91,SSE,158,0.0,1.0,96,0.03,,,0.48,,2013-01-17 11:12:00,
2013-01-17 06:22:00,47.0,46.0,29.91,SSE,158,0.0,1.0,96,0.03,,,0.48,,2013-01-17 11:22:00,
2013-01-17 06:33:00,47.0,46.0,29.91,SSE,158,0.0,0.0,96,0.02,,,0.49,,2013-01-17 11:33:00,
2013-01-17 06:43:00,47.0,46.0,29.91,SSE,158,0.0,0.0,96,0.02,,,0.49,,2013-01-17 11:43:00,
2013-01-17 06:53:00,47.0,46.0,29.91,SSE,158,0.0,2.0,96,0.01,,,0.49,,2013-01-17 11:53:00,
2013-01-17 07:02:00,47.0,46.0,29.92,SSE,158,0.0,1.0,96,0.03,,,0.50,,2013-01-17 12:02:00,
2013-01-17 07:12:00,47.0,46.0,29.92,SSE,158,0.0,1.0,96,0.03,,,0.50,,2013-01-17 12:12:00,
2013-01-17 07:23:00,47.0,46.0,29.91,SSE,158,0.0,1.0,96,0.07,,,0.54,,2013-01-17 12:23:00,
2013-01-17 07:33:00,47.0,46.0,29.91,SSE,158,0.0,1.0,96,0.06,,,0.54,,2013-01-17 12:33:00,
2013-01-17 07:43:00,47.0,46.0,29.91,SSE,158,0.0,1.0,96,0.06,,,0.54,,2013-01-17 12:43:00,
2013-01-17 07:53:00,47.0,46.0,29.91,SSE,158,0.0,1.0,96,0.06,,,0.54,,2013-01-17 12:53:00,
2013-01-17 08:03:00,46.0,45.0,29.91,SSE,158,0.0,0.0,96,0.04,,,0.43,,2013-01-17 13:03:00,
2013-01-17 08:12:00,46.0,45.0,29.91,SSE,158,0.0,0.0,96,0.04,,,0.43,,2013-01-17 13:12:00,
2013-01-17 08:23:00,46.0,45.0,29.91,SSE,158,0.0,0.0,96,0.03,,,0.44,,2013-01-17 13:23:00,
2013-01-17 08:33:00,46.0,45.0,29.91,SSE,160,0.0,0.0,96,0.02,,,0.45,,2013-01-17 13:33:00,
2013-01-17 08:43:00,46.0,45.0,29.91,SSE,160,0.0,0.0,96,0.02,,,0.45,,2013-01-17 13:43:00,
2013-01-17 08:53:00,46.0,45.0,29.91,SSE,160,0.0,0.0,97,0.08,,,0.51,,2013-01-17 13:53:00,
2013-01-17 09:03:00,46.0,45.0,29.91,SSE,160,0.0,1.0,97,0.10,,,0.46,,2013-01-17 14:03:00,
2013-01-17 09:12:00,46.0,45.0,29.91,SSE,160,0.0,1.0,97,0.10,,,0.46,,2013-01-17 14:12:00,
2013-01-17 09:23:00,46.0,45.0,29.92,SSE,159,0.0,2.0,97,0.12,,,0.49,,2013-01-17 14:23:00,
2013-01-17 09:33:00,45.0,44.0,29.91,SSE,160,1.0,3.0,96,0.14,,,0.54,,2013-01-17 14:33:00,
2013-01-17 09:43:00,45.0,44.0,29.91,SSE,160,1.0,3.0,96,0.14,,,0.54,,2013-01-17 14:43:00,
2013-01-17 09:53:00,46.0,45.0,29.91,SSE,160,1.0,3.0,97,0.12,,,0.56,,2013-01-17 14:53:00,
2013-01-17 10:03:00,46.0,45.0,29.92,SSE,160,0.0,3.0,97,0.10,,,0.55,,2013-01-17 15:03:00,
2013-01-17 10:12:00,46.0,45.0,29.92,SSE,160,0.0,3.0,97,0.10,,,0.55,,2013-01-17 15:12:00,
2013-01-17 10:23:00,45.0,44.0,29.92,SSE,160,0.0,2.0,97,0.16,,,0.65,,2013-01-17 15:23:00,
2013-01-17 10:33:00,45.0,44.0,29.90,SSE,160,4.0,6.0,97,0.20,,,0.73,,2013-01-17 15:33:00,
2013-01-17 10:43:00,45.0,44.0,29.90,SSE,160,4.0,6.0,97,0.20,,,0.73,,2013-01-17 15:43:00,
2013-01-17 10:53:00,45.0,44.0,29.90,SSE,160,4.0,6.0,97,0.20,,,0.73,,2013-01-17 15:53:00,
2013-01-17 11:03:00,45.0,44.0,29.88,SSE,167,6.0,10.0,97,0.21,,,0.72,,2013-01-17 16:03:00,
2013-01-17 11:12:00,45.0,44.0,29.88,SSE,167,6.0,10.0,97,0.21,,,0.72,,2013-01-17 16:12:00,
2013-01-17 11:23:00,45.0,44.0,29.86,South,169,8.0,14.0,97,0.09,,,0.72,,2013-01-17 16:23:00,
2013-01-17 11:33:00,44.0,43.0,29.86,South,169,7.0,13.0,97,0.01,,,0.72,,2013-01-17 16:33:00,
2013-01-17 11:43:00,44.0,43.0,29.86,South,169,7.0,13.0,97,0.01,,,0.72,,2013-01-17 16:43:00,
2013-01-17 11:53:00,44.0,43.0,29.86,South,169,7.0,13.0,97,0.01,,,0.72,,2013-01-17 16:53:00,
2013-01-17 12:03:00,44.0,43.0,29.86,South,169,7.0,13.0,97,0.01,,,0.72,,2013-01-17 17:03:00,
2013-01-17 12:13:00,44.0,43.0,29.86,South,169,7.0,13.0,97,0.01,,,0.72,,2013-01-17 17:13:00,
2013-01-17 12:23:00,44.0,43.0,29.84,South,170,8.0,12.0,97,0.17,,,0.88,,2013-01-17 17:23:00,
2013-01-17 12:33:00,44.0,43.0,29.83,South,173,8.0,14.0,97,0.19,,,0.90,,2013-01-17 17:33:00,
2013-01-17 12:43:00,44.0,43.0,29.83,South,173,8.0,14.0,97,0.19,,,0.90,,2013-01-17 17:43:00,
2013-01-17 12:54:00,44.0,43.0,29.83,South,173,8.0,14.0,97,0.19,,,0.90,,2013-01-17 17:54:00,
2013-01-17 13:04:00,44.0,43.0,29.83,South,173,8.0,14.0,97,0.19,,,0.90,,2013-01-17 18:04:00,
2013-01-17 13:13:00,44.0,43.0,29.83,South,173,8.0,14.0,97,0.19,,,0.90,,2013-01-17 18:13:00,
2013-01-17 13:34:00,42.0,41.0,29.80,SSE,168,7.0,11.0,97,0.09,,,0.99,,2013-01-17 18:34:00,
2013-01-17 13:44:00,42.0,41.0,29.80,SSE,168,7.0,11.0,97,0.09,,,0.99,,2013-01-17 18:44:00,
2013-01-17 13:54:00,42.0,41.0,29.80,SSE,168,7.0,18.0,97,0.16,,,1.07,,2013-01-17 18:54:00,
2013-01-17 14:03:00,41.0,40.0,29.78,South,169,6.0,11.0,97,0.21,,,1.12,,2013-01-17 19:03:00,
2013-01-17 14:13:00,41.0,40.0,29.78,South,169,6.0,11.0,97,0.21,,,1.12,,2013-01-17 19:13:00,
2013-01-17 14:23:00,41.0,40.0,29.78,South,170,8.0,15.0,97,0.21,,,1.14,,2013-01-17 19:23:00,
2013-01-17 14:33:00,40.0,39.0,29.80,South,173,8.0,14.0,97,0.24,,,1.23,,2013-01-17 19:33:00,
2013-01-17 14:43:00,40.0,39.0,29.80,South,173,8.0,14.0,97,0.24,,,1.23,,2013-01-17 19:43:00,
2013-01-17 14:53:00,39.0,38.0,29.79,South,172,11.0,28.0,97,0.16,,,1.23,,2013-01-17 19:53:00,
2013-01-17 15:03:00,38.0,37.0,29.78,South,169,10.0,22.0,97,0.11,,,1.23,,2013-01-17 20:03:00,
2013-01-17 15:13:00,38.0,37.0,29.78,South,169,10.0,22.0,97,0.11,,,1.23,,2013-01-17 20:13:00,
2013-01-17 15:23:00,37.0,36.0,29.80,SSE,168,2.0,17.0,97,0.09,,,1.24,,2013-01-17 20:23:00,
2013-01-17 15:33:00,37.0,36.0,29.80,SSE,166,2.0,9.0,97,0.07,,,1.30,,2013-01-17 20:33:00,
2013-01-17 15:43:00,37.0,36.0,29.80,SSE,166,2.0,9.0,97,0.07,,,1.30,,2013-01-17 20:43:00,
2013-01-17 15:54:00,37.0,36.0,29.82,SSE,167,2.0,6.0,97,0.15,,,1.38,,2013-01-17 20:54:00,
2013-01-17 16:03:00,37.0,36.0,29.82,SSE,167,2.0,6.0,97,0.15,,,1.38,,2013-01-17 21:03:00,
2013-01-17 16:13:00,37.0,36.0,29.82,SSE,167,2.0,6.0,97,0.15,,,1.38,,2013-01-17 21:13:00,
2013-01-17 16:23:00,37.0,36.0,29.82,SSE,167,2.0,6.0,97,0.15,,,1.38,,2013-01-17 21:23:00,
2013-01-17 16:34:00,37.0,36.0,29.80,South,169,4.0,8.0,97,0.26,,,1.56,,2013-01-17 21:34:00,
2013-01-17 16:43:00,37.0,36.0,29.80,South,169,4.0,8.0,97,0.26,,,1.56,,2013-01-17 21:43:00,
2013-01-17 16:53:00,36.0,35.0,29.77,South,169,4.0,8.0,97,0.25,,,1.63,,2013-01-17 21:53:00,
2013-01-17 17:04:00,36.0,35.0,29.76,South,170,8.0,13.0,97,0.21,,,1.64,,2013-01-17 22:04:00,
2013-01-17 17:12:00,36.0,35.0,29.76,South,170,8.0,13.0,97,0.21,,,1.64,,2013-01-17 22:12:00,
2013-01-17 17:23:00,36.0,35.0,29.77,SSE,167,7.0,15.0,97,0.13,,,1.64,,2013-01-17 22:23:00,
2013-01-17 17:33:00,37.0,36.0,29.78,South,170,9.0,16.0,97,0.08,,,1.64,,2013-01-17 22:33:00,
2013-01-17 17:43:00,37.0,36.0,29.78,South,170,9.0,16.0,97,0.08,,,1.64,,2013-01-17 22:43:00,
2013-01-17 17:53:00,37.0,36.0,29.80,South,170,8.0,16.0,97,0.01,,,1.64,,2013-01-17 22:53:00,
2013-01-17 18:02:00,36.0,35.0,29.83,SSE,166,3.0,13.0,97,0.02,,,1.66,,2013-01-17 23:02:00,
2013-01-17 18:03:00,36.0,35.0,29.81,SSE,166,3.0,11.0,97,0.00,,,1.64,,2013-01-17 23:03:00,
2013-01-17 18:12:00,36.0,35.0,29.81,SSE,166,3.0,11.0,97,0.00,,,1.64,,2013-01-17 23:12:00,
2013-01-17 18:23:00,36.0,35.0,29.83,SSE,166,3.0,13.0,97,0.02,,,1.66,,2013-01-17 23:23:00,
2013-01-17 18:33:00,36.0,35.0,29.83,SSE,166,3.0,13.0,97,0.02,,,1.66,,2013-01-17 23:33:00,
2013-01-17 18:43:00,36.0,35.0,29.83,SSE,166,3.0,13.0,97,0.02,,,1.66,,2013-01-17 23:43:00,
2013-01-17 18:53:00,36.0,35.0,29.83,SSE,166,3.0,13.0,97,0.02,,,1.66,,2013-01-17 23:53:00,
2013-01-17 20:53:00,34.0,33.0,29.97,South,169,0.0,3.0,97,0.04,,,1.84,,2013-01-18 01:53:00,
2013-01-17 21:03:00,34.0,33.0,29.99,South,169,0.0,2.0,97,0.02,,,1.84,,2013-01-18 02:03:00,
2013-01-17 21:12:00,34.0,33.0,29.99,South,169,0.0,2.0,97,0.02,,,1.84,,2013-01-18 02:12:00,
2013-01-17 21:23:00,33.0,32.0,29.99,SSE,156,0.0,7.0,97,0.02,,,1.86,,2013-01-18 02:23:00,
2013-01-17 21:33:00,32.0,31.0,30.01,SSE,156,0.0,5.0,97,0.02,,,1.86,,2013-01-18 02:33:00,
2013-01-17 21:43:00,32.0,31.0,30.01,SSE,156,0.0,5.0,97,0.02,,,1.86,,2013-01-18 02:43:00,
2013-01-17 21:53:00,32.0,31.0,30.01,SSE,156,0.0,5.0,97,0.02,,,1.86,,2013-01-18 02:53:00,
2013-01-17 22:02:00,32.0,31.0,30.03,SSE,157,0.0,2.0,97,0.02,,,1.86,,2013-01-18 03:02:00,
2013-01-17 22:12:00,32.0,31.0,30.03,SSE,157,0.0,2.0,97,0.02,,,1.86,,2013-01-18 03:12:00,
2013-01-17 22:23:00,32.0,31.0,30.03,SSE,157,0.0,2.0,97,0.02,,,1.86,,2013-01-18 03:23:00,
2013-01-17 22:33:00,32.0,31.0,30.03,SSE,157,0.0,2.0,97,0.02,,,1.86,,2013-01-18 03:33:00,
2013-01-17 22:42:00,32.0,31.0,30.03,SSE,157,0.0,2.0,97,0.02,,,1.86,,2013-01-18 03:42:00,